Find OneWeb SL0329

NORAD ID: 49107 Int'l Des: 2021-075 Owner: ONEWEBN Country: UK Constellation: oneweb operational
LEOCIRCULARPOLARONEWEB_TYPE

Live Position

Loading 3D Globe...

About OneWeb SL0329

Description loading...

Upcoming Passes

Passes for default location (London). Set your location on the main map for personalized predictions.

Altitude History

Loading altitude history...

Two-Line Element Set

1 49107U 21075AJ 26106.67353399 -.00000026 00000-0 -99049-4 0 9991
2 49107 87.9181 18.0886 0001712 78.3146 281.8177 13.17651480225489
Epoch: Apr 16, 2026 • Age: 15 hours

Current Status

Altitude 1204.2 km
Velocity 7.26 km/s
Sub-Earth Point 66.34°N, 122°W
Launch Date Aug 21, 2021
Age 4.6 years
Type internet

Technical Details

Classification Payload
Mass 148.00 kg
Dry Mass 140.00 kg
Total Mass 148.00 kg
Length 1.30 m
Diameter 1.00 m
Span 5.00 m
Shape Trapezoid+2 pan
Manufacturer ONEWUS
Bus Type ARROW
Phase Status In Orbit
Owner/State ONEWEBN/UK

Most Searched